Terminal Aerodrome Forecast
Issued by NWS Des Moines, IA

Home | Current Version | Previous Version | Text Only | Print | Product List | Glossary On
Versions: 1 2 3 4 5 6 7 8 9 10 11 12 13 14 15 16 17 18 19 20 21 22 23 24 25 26 27 28 29 30 31 32 33 34 35 36 37 38 39 40 41 42 43 44 45 46 47 48 49 50
000
FTUS43 KDMX 171730
TAFALO
TAF
KALO 171730Z 1718/1818 32008KT P6SM FEW015
     FM180000 VRB03KT P6SM FEW150
     FM181000 02003KT P6SM SCT010 BKN150=

USA.gov is the U.S. government's official web portal to all federal, state and local government web resources and services.